Time,TemperatureF,DewpointF,PressureIn,WindDirection,WindDirectionDegrees,WindSpeedMPH,WindSpeedGustMPH,Humidity,HourlyPrecipIn,Conditions,Clouds,dailyrainin,SoftwareType,DateUTC
2013-11-17 00:00:00,72.0,69.6,29.91,SSE,158,9.0,19.0,92,0.00,,SKC,0.00,VWS V14.00,2013-11-17 06:00:00,
2013-11-17 01:00:00,71.6,69.5,29.90,SSE,158,10.0,16.0,93,0.00,,SKC,0.00,VWS V14.00,2013-11-17 07:00:00,
2013-11-17 02:00:00,71.1,69.3,29.86,SSE,158,10.0,17.0,94,0.00,,SKC,0.00,VWS V14.00,2013-11-17 08:00:00,
2013-11-17 03:00:00,71.2,69.4,29.86,SSE,158,7.0,12.0,94,0.00,,SKC,0.00,VWS V14.00,2013-11-17 09:00:00,
2013-11-17 04:00:00,71.3,69.8,29.86,SSE,158,6.0,11.0,95,0.00,,SKC,0.00,VWS V14.00,2013-11-17 10:00:00,
2013-11-17 05:00:00,71.2,69.7,29.87,SSE,158,6.0,12.0,95,0.00,,SKC,0.00,VWS V14.00,2013-11-17 11:00:00,
2013-11-17 06:00:00,71.2,69.7,29.86,SSE,158,6.0,0.0,95,0.00,,SKC,0.00,VWS V14.00,2013-11-17 12:00:00,
2013-11-17 07:00:00,71.2,69.7,29.88,SSE,158,6.0,0.0,95,0.00,,SKC,0.00,VWS V14.00,2013-11-17 13:00:00,
2013-11-17 08:00:00,73.5,72.0,29.90,SSW,202,9.0,16.0,95,0.00,,SKC,0.00,VWS V14.00,2013-11-17 14:00:00,
2013-11-17 09:00:00,74.1,72.3,29.91,SSW,202,8.0,16.0,94,0.00,,SKC,0.00,VWS V14.00,2013-11-17 15:00:00,
2013-11-17 10:00:00,75.4,72.9,29.92,SSW,202,8.0,16.0,92,0.00,,SKC,0.00,VWS V14.00,2013-11-17 16:00:00,
2013-11-17 11:00:00,77.6,74.1,29.91,SSW,202,11.0,20.0,89,0.00,,SKC,0.00,VWS V14.00,2013-11-17 17:00:00,
2013-11-17 12:00:00,78.6,74.4,29.88,SSW,202,10.0,20.0,87,0.00,,SKC,0.00,VWS V14.00,2013-11-17 18:00:00,
2013-11-17 13:00:00,79.8,74.5,29.85,SW,225,8.0,19.0,84,0.00,,SKC,0.00,VWS V14.00,2013-11-17 19:00:00,
2013-11-17 14:00:00,81.3,74.9,29.83,SW,225,10.0,22.0,81,0.00,,SKC,0.00,VWS V14.00,2013-11-17 20:00:00,
2013-11-17 15:00:00,82.4,75.2,29.83,SW,225,11.0,20.0,79,0.00,,SKC,0.00,VWS V14.00,2013-11-17 21:00:00,
2013-11-17 16:00:00,81.4,75.4,29.85,SW,225,8.0,18.0,82,0.00,,SKC,0.00,VWS V14.00,2013-11-17 22:00:00,
2013-11-17 17:00:00,79.9,75.3,29.86,SW,225,6.0,14.0,86,0.00,,SKC,0.00,VWS V14.00,2013-11-17 23:00:00,
2013-11-17 18:00:00,78.0,74.5,29.89,SSW,202,3.0,9.0,89,0.00,,SKC,0.00,VWS V14.00,2013-11-18 00:00:00,
2013-11-17 19:00:00,76.5,74.0,29.91,SSW,202,4.0,8.0,92,0.00,,SKC,0.00,VWS V14.00,2013-11-18 01:00:00,
2013-11-17 20:00:00,75.8,73.6,29.92,SSW,202,4.0,8.0,93,0.00,,SKC,0.00,VWS V14.00,2013-11-18 02:00:00,
2013-11-17 21:00:00,75.3,73.5,29.92,SSW,202,4.0,9.0,94,0.00,,SKC,0.00,VWS V14.00,2013-11-18 03:00:00,
2013-11-17 22:00:00,74.8,73.3,29.93,SSW,202,2.0,7.0,95,0.00,,SKC,0.00,VWS V14.00,2013-11-18 04:00:00,
2013-11-17 23:00:00,74.9,73.4,29.93,SSW,202,2.0,6.0,95,0.00,,SKC,0.00,VWS V14.00,2013-11-18 05:00:00,